Flag Weather past 2 weeks in London, England, United Kingdom

Now
52 °F

Passing clouds.


Feels Like: 49 °F
Forecast: 45 / 55 °F
Wind: 7 mph from North

Location: Northolt

Current Time: Nov 23, 2014 at 3:40:57 AM

Latest Report: Nov 23, 2014 at 1:50 AM


Visibility: N/A

Pressure: 29.95 "Hg

Humidity: 94%

Dew point: 50 °F

Location of LondonLocation

Historic Weather in London — Graph

°F

London temperature yesterday

Maximum temperature yesterday: 57 °F (at 10:50 AM)
Minimum temperature yesterday: 50 °F (at 12:50 AM)
Average temperature yesterday: 55 °F

Past Weeks' High & Low Weather Summary

 TemperatureHumidityPressure
High57 °F (Nov 8, 11:50 AM)100% (Nov 9, 1:50 AM)30.27 "Hg (Nov 9, 1:50 AM)
Low37 °F (Nov 21, 1:50 AM)55% (Nov 9, 2:50 PM)29.30 "Hg (Nov 12, 1:50 AM)
Average49 °F88%29.69 "Hg
* Reported Nov 8 1:50 AM — Nov 23 1:50 AM, London, Weather by CustomWeather, © 2014

Note: Actual official high and low records may vary slightly from our data, if they occured in-between our weather recording intervals... More about our weather records

Advertising

London weather history for previous 24 hours

 ConditionsComfort  
Time TempWeatherWind HumidityBarometerVisibility
1:50 AM
Nov 23
52 °FPassing clouds.7 mph94%29.95 "HgN/A
12:50 AM54 °FPassing clouds.5 mph94%29.98 "Hg2 mi
11:50 PM
Nov 22
55 °FPartly cloudy.1 mph94%29.98 "Hg1 mi
10:50 PM55 °FPassing clouds.1 mph100%29.98 "Hg2 mi
9:50 PM55 °FPartly cloudy.3 mph100%29.98 "Hg2 mi
8:50 PM57 °FDrizzle. Mostly cloudy.2 mph94%29.95 "Hg2 mi
7:50 PM55 °FFog.3 mph100%29.95 "Hg4 mi
6:50 PM57 °FDrizzle. Overcast.3 mph94%29.95 "Hg2 mi
5:50 PM57 °FPartly cloudy.3 mph94%29.95 "HgN/A
4:50 PM57 °FPassing clouds.5 mph94%29.92 "HgN/A
3:50 PM57 °FFog.3 mph94%29.92 "Hg5 mi
2:50 PM57 °FFog.3 mph94%29.92 "Hg2 mi
1:50 PM57 °FDrizzle. Partly sunny.5 mph94%29.92 "Hg1 mi
12:50 PM57 °FFog.5 mph94%29.92 "Hg2 mi
11:50 AM57 °FFog.6 mph94%29.92 "Hg3 mi
10:50 AM57 °FFog.6 mph94%29.92 "Hg3 mi
9:50 AM55 °FFog.6 mph100%29.92 "Hg2 mi
8:50 AM54 °FFog.3 mph100%29.89 "Hg2 mi
7:50 AM54 °FFog.2 mph94%29.89 "Hg2 mi
6:50 AM52 °FFog.5 mph94%29.86 "Hg2 mi
5:50 AM52 °FPassing clouds.7 mph94%29.83 "Hg1 mi
4:50 AM52 °FPassing clouds.6 mph94%29.86 "Hg2 mi
3:50 AM50 °FPartly cloudy.5 mph100%29.86 "Hg2 mi
Weather by CustomWeather, © 2014

See weather overviewHow to use our weather pages